Weather History for Metropolis, IL

Change the Weather History Date:

Saturday, August 24, 2013

  Actual Average (KPAH) Record (KPAH)
Temperature  
Mean Temperature 77 °F 77 °F  
Max Temperature 87 °F 89 °F 101 °F (2007)
Min Temperature 67 °F 65 °F 54 °F (1952)
Degree Days  
Heating Degree Days 0 0  
Month to date heating degree days 0  
Since 1 June heating degree days 4  
Since 1 July heating degree days 0  
Cooling Degree Days 12 12  
Month to date cooling degree days 308  
Year to date cooling degree days 1231  
Since 1 June cooling degree days 1059  
Growing Degree Days 27 (Base 50)    
Moisture  
Dew Point 70 °F    
Average Humidity 82    
Maximum Humidity 100    
Minimum Humidity 51    
Precipitation  
Precipitation 0.00 in 0.08 in 2.27 in (1982)
Month to date precipitation 2.16  
Year to date precipitation 31.88  
Snow  
Snow 0.00 in 0.00 in - ()
Month to date snowfall 0.0  
Since 1 June snowfall 0.0  
Since 1 July snowfall 0.0  
Snow Depth -    
Sea Level Pressure  
Sea Level Pressure 30.16 in    
Wind  
Wind Speed 1 mph (ENE)    
Max Wind Speed 8 mph    
Max Gust Speed -    
Visibility 8 miles    
Events      
T = Trace of Precipitation, MM = Missing Value Source: NWS Daily Summary

Daily Weather History Graph

Daily Weather History Graph

Search for Another Location

Airport:

Trip Planner

Search our weather history database for the weather conditions in past years. The results will help you decide how hot, cold, wet, or windy it might be!

Date:

Astronomy

Aug. 24, 2013 Rise Set
Actual Time 6:19 AM CDT 7:34 PM CDT
Civil Twilight 5:52 AM CDT 8:01 PM CDT
Nautical Twilight 5:19 AM CDT 8:33 PM CDT
Astronomical Twilight 4:46 AM CDT 9:07 PM CDT
Moon 9:36 PM CDT (8/24) 10:11 AM CDT (8/24)
Length of Visible Light 14h 09m
Length of Day
13h 15m
Waning Gibbous, 84% of the Moon is Illuminated
Aug 24
Waning Gibbous
Aug 28
Last Quarter
Sep 5
New
Sep 12
First Quarter
Sep 19
Full

Hourly Weather History & Observations

Time (CDT) Temp. Heat Index Dew Point Humidity Pressure Visibility Wind Dir Wind Speed Gust Speed Precip Events Conditions
12:15 AM 71.4 °F - 71.4 °F 100% 30.09 in 1.2 mi Calm Calm - N/A   Mist
12:35 AM 71.6 °F - 71.6 °F 100% 30.09 in 3.0 mi Calm Calm - N/A   Mist
12:55 AM 70.9 °F - 70.9 °F 100% 30.09 in 2.5 mi Calm Calm - N/A   Clear
1:15 AM 71.4 °F - 71.4 °F 100% 30.09 in 5.0 mi Calm Calm - N/A   Clear
1:35 AM 71.1 °F - 71.1 °F 100% 30.09 in 3.0 mi Calm Calm - N/A   Clear
1:55 AM 70.7 °F - 70.7 °F 100% 30.09 in 2.5 mi Calm Calm - N/A   Clear
2:15 AM 70.5 °F - 70.5 °F 100% 30.10 in 4.0 mi Calm Calm - N/A   Clear
2:35 AM 69.8 °F - 69.8 °F 100% 30.10 in 5.0 mi Calm Calm - N/A   Clear
2:55 AM 69.3 °F - 69.3 °F 100% 30.10 in 3.0 mi Calm Calm - N/A   Clear
3:15 AM 69.4 °F - 69.4 °F 100% 30.11 in 2.5 mi Calm Calm - N/A   Mist
3:35 AM 69.4 °F - 69.4 °F 100% 30.11 in 4.0 mi Calm Calm - N/A   Clear
3:55 AM 68.5 °F - 68.5 °F 100% 30.11 in 2.5 mi Calm Calm - N/A   Mist
4:15 AM 68.2 °F - 68.2 °F 100% 30.11 in 2.5 mi Calm Calm - N/A   Mist
4:35 AM 67.3 °F - 67.3 °F 100% 30.12 in 2.0 mi Calm Calm - N/A   Mist
4:55 AM 67.8 °F - 67.8 °F 100% 30.12 in 2.5 mi Calm Calm - N/A   Mist
5:15 AM 67.5 °F - 67.5 °F 100% 30.13 in 3.0 mi Calm Calm - N/A   Mist
5:35 AM 68.0 °F - 68.0 °F 100% 30.13 in 7.0 mi Calm Calm - N/A   Clear
5:55 AM 67.8 °F - 67.8 °F 100% 30.14 in 5.0 mi Calm Calm - N/A   Clear
6:15 AM 68.0 °F - 68.0 °F 100% 30.14 in 4.0 mi Calm Calm - N/A   Clear
6:35 AM 68.2 °F - 68.2 °F 100% 30.15 in 4.0 mi Calm Calm - N/A   Clear
6:55 AM 67.6 °F - 67.6 °F 100% 30.16 in 4.0 mi Calm Calm - N/A   Clear
7:15 AM 68.9 °F - 68.9 °F 100% 30.16 in 4.0 mi Calm Calm - N/A   Clear
7:35 AM 70.9 °F - 70.9 °F 100% 30.16 in 5.0 mi Calm Calm - N/A   Clear
7:55 AM 73.0 °F - 73.0 °F 100% 30.18 in 7.0 mi Calm Calm - N/A   Clear
8:15 AM 74.1 °F - 73.6 °F 98% 30.18 in 10.0 mi Calm Calm - N/A   Clear
8:35 AM 75.9 °F - 73.6 °F 92% 30.19 in 10.0 mi East 3.5 mph - N/A   Clear
8:55 AM 77.4 °F - 73.8 °F 89% 30.19 in 10.0 mi Calm Calm - N/A   Clear
9:15 AM 78.4 °F - 74.1 °F 87% 30.19 in 10.0 mi ESE 3.5 mph - N/A   Clear
9:35 AM 79.9 °F - 74.7 °F 84% 30.19 in 10.0 mi East 3.5 mph - N/A   Clear
9:55 AM 80.8 °F 85.9 °F 74.1 °F 80% 30.20 in 10.0 mi Calm Calm - N/A   Clear
10:15 AM 81.5 °F 86.9 °F 73.8 °F 77% 30.20 in 10.0 mi ESE 4.6 mph - N/A   Clear
10:35 AM 82.8 °F 89.8 °F 74.8 °F 77% 30.20 in 10.0 mi Calm Calm - N/A   Clear
10:55 AM 84.0 °F 89.3 °F 71.6 °F 66% 30.20 in 10.0 mi ESE 3.5 mph - N/A   Clear
11:15 AM 84.4 °F 89.4 °F 70.9 °F 64% 30.20 in 10.0 mi ENE 4.6 mph - N/A   Clear
11:35 AM 84.0 °F 89.0 °F 71.2 °F 65% 30.19 in 10.0 mi Calm Calm - N/A   Clear
11:55 AM 85.5 °F 89.4 °F 69.3 °F 58% 30.19 in 10.0 mi ESE 5.8 mph - N/A   Scattered Clouds
12:15 PM 85.1 °F 89.1 °F 69.3 °F 59% 30.19 in 10.0 mi NE 5.8 mph - N/A   Scattered Clouds
12:35 PM 83.3 °F 86.6 °F 68.7 °F 61% 30.18 in 10.0 mi NE 5.8 mph - N/A   Scattered Clouds
12:55 PM 86.0 °F 90.7 °F 70.0 °F 59% 30.18 in 10.0 mi ENE 8.1 mph - N/A   Scattered Clouds
1:15 PM 86.2 °F 90.4 °F 69.3 °F 57% 30.17 in 10.0 mi NE 4.6 mph - N/A   Scattered Clouds
1:35 PM 85.8 °F 90.1 °F 69.4 °F 58% 30.17 in 10.0 mi ENE 6.9 mph - N/A   Clear
1:55 PM 86.7 °F 91.4 °F 69.6 °F 57% 30.17 in 10.0 mi NE 5.8 mph - N/A   Clear
2:15 PM 85.8 °F 89.1 °F 67.8 °F 55% 30.17 in 10.0 mi East 5.8 mph - N/A   Clear
2:35 PM 86.9 °F 90.6 °F 68.5 °F 54% 30.17 in 10.0 mi East 6.9 mph - N/A   Clear
2:55 PM 86.0 °F 89.4 °F 68.0 °F 55% 30.16 in 10.0 mi NE 6.9 mph - N/A   Scattered Clouds
3:15 PM 86.9 °F 89.9 °F 67.3 °F 52% 30.16 in 10.0 mi ENE 5.8 mph - N/A   Scattered Clouds
3:35 PM 87.1 °F 90.9 °F 68.4 °F 54% 30.16 in 10.0 mi Calm Calm - N/A   Clear
3:55 PM 86.7 °F 90.3 °F 68.2 °F 54% 30.15 in 10.0 mi ENE 5.8 mph - N/A   Scattered Clouds
4:15 PM 86.9 °F 89.9 °F 67.1 °F 52% 30.15 in 10.0 mi NE 3.5 mph - N/A   Clear
4:35 PM 87.3 °F 90.2 °F 67.1 °F 51% 30.15 in 10.0 mi East 6.9 mph - N/A   Clear
4:55 PM 86.9 °F 89.9 °F 67.5 °F 52% 30.15 in 10.0 mi East 4.6 mph - N/A   Scattered Clouds
5:15 PM 86.2 °F 88.4 °F 66.4 °F 51% 30.15 in 10.0 mi ENE 5.8 mph - N/A   Clear
5:35 PM 86.2 °F 88.4 °F 66.2 °F 51% 30.15 in 10.0 mi ENE 3.5 mph - N/A   Clear
5:55 PM 86.2 °F 89.4 °F 68.0 °F 54% 30.15 in 10.0 mi Calm Calm - N/A   Clear
6:15 PM 85.3 °F 88.2 °F 67.5 °F 55% 30.15 in 10.0 mi ENE 3.5 mph - N/A   Clear
6:35 PM 83.7 °F 86.7 °F 67.8 °F 59% 30.14 in 10.0 mi ENE 3.5 mph - N/A   Clear
6:55 PM 82.4 °F 85.6 °F 68.7 °F 63% 30.14 in 10.0 mi Calm Calm - N/A   Clear
7:15 PM 80.2 °F 83.1 °F 68.9 °F 68% 30.15 in 10.0 mi Calm Calm - N/A   Clear
7:35 PM 77.5 °F - 69.6 °F 76% 30.15 in 10.0 mi Calm Calm - N/A   Clear
7:55 PM 76.3 °F - 69.6 °F 80% 30.16 in 10.0 mi Calm Calm - N/A   Clear
8:15 PM 75.6 °F - 68.7 °F 79% 30.16 in 10.0 mi Calm Calm - N/A   Clear
8:35 PM 74.1 °F - 68.9 °F 84% 30.17 in 10.0 mi Calm Calm - N/A   Clear
8:55 PM 73.4 °F - 69.4 °F 87% 30.17 in 10.0 mi Calm Calm - N/A   Clear
9:15 PM 71.8 °F - 71.6 °F 99% 30.18 in 10.0 mi Calm Calm - N/A   Clear
9:35 PM 71.2 °F - 71.2 °F 100% 30.19 in 10.0 mi Calm Calm - N/A   Clear
9:55 PM 71.8 °F - 71.8 °F 100% 30.19 in 10.0 mi Calm Calm - N/A   Clear
10:15 PM 71.2 °F - 71.2 °F 100% 30.19 in 10.0 mi Calm Calm - N/A   Clear
10:35 PM 70.5 °F - 70.5 °F 100% 30.19 in 10.0 mi Calm Calm - N/A   Clear
10:55 PM 69.4 °F - 69.4 °F 100% 30.19 in 10.0 mi Calm Calm - N/A   Clear
11:15 PM 69.4 °F - 69.4 °F 100% 30.19 in 10.0 mi Calm Calm - N/A   Clear
11:35 PM 68.4 °F - 68.4 °F 100% 30.19 in 7.0 mi Calm Calm - N/A   Clear
11:55 PM 68.0 °F - 68.0 °F 100% 30.20 in 7.0 mi Calm Calm - N/A   Clear